Flag for United Kingdom Weather past 2 weeks in Swansea, Wales, United Kingdom

Now
47 °F

Cool.


Feels Like: 45 °F
Forecast: 40 / 51 °F
Wind: 5 mph from Southeast

Location: Mumbles

Current Time: Apr 27, 2015 at 11:32:55 AM

Latest Report: Apr 27, 2015 at 10:00 AM


Visibility: N/A

Pressure: 29.94 "Hg

Humidity: 64%

Dew point: 35 °F

Location of SwanseaLocation

Historic Weather in Swansea — Graph

°F

Swansea temperature yesterday

Maximum temperature yesterday: 56 °F (at 4:00 PM)
Minimum temperature yesterday: 44 °F (at 8:00 AM)
Average temperature yesterday: 48 °F

Past Weeks' High & Low Weather Summary

 TemperatureHumidityPressure
High62 °F (Apr 22, 4:00 PM)100% (Apr 25, 4:00 AM)30.58 "Hg (Apr 25, 4:00 AM)
Low39 °F (Apr 27, 5:00 AM)45% (Apr 22, 2:00 PM)29.68 "Hg (Apr 25, 6:00 AM)
Average51 °F76%30.16 "Hg
* Reported Apr 12 10:00 AM — Apr 27 10:00 AM, Swansea, Weather by CustomWeather, © 2015

Note: Actual official high and low records may vary slightly from our data, if they occured in-between our weather recording intervals... More about our weather records

Advertising

Swansea weather history for previous 24 hours

 ConditionsComfort  
Time TempWeatherWind HumidityBarometerVisibility
10:00 AM
Mon, Apr 27
47 °FCool.5 mph64%29.94 "HgN/A
9:00 AM47 °FCool.5 mph68%29.93 "HgN/A
8:00 AM45 °FCool.6 mph70%29.93 "HgN/A
7:00 AM41 °FQuite cool.6 mph75%29.93 "HgN/A
6:00 AM39 °FChilly.7 mph73%29.91 "HgN/A
5:00 AM39 °FChilly.6 mph71%29.92 "HgN/A
4:00 AM40 °FQuite cool.8 mph69%29.91 "HgN/A
3:00 AM41 °FQuite cool.9 mph66%29.91 "HgN/A
2:00 AM42 °FQuite cool.9 mph67%29.92 "HgN/A
1:00 AM43 °FQuite cool.6 mph63%29.91 "HgN/A
12:00 AM45 °FQuite cool.10 mph61%29.90 "HgN/A
11:00 PM
Sun, Apr 26
46 °FCool.10 mph60%29.89 "HgN/A
9:00 PM47 °FCool.13 mph50%29.86 "HgN/A
8:00 PM49 °FCool.15 mph48%29.84 "HgN/A
7:00 PM51 °FCool.13 mph47%29.83 "HgN/A
6:00 PM53 °FCool.13 mph45%29.82 "HgN/A
5:00 PM53 °FCool.10 mph71%29.81 "HgN/A
4:00 PM56 °FCool.12 mph64%29.81 "HgN/A
3:00 PM52 °FCool.13 mph68%29.82 "HgN/A
2:00 PM53 °FCool.7 mph67%29.83 "HgN/A
1:00 PM50 °FCool.6 mph74%29.83 "HgN/A
12:00 PM49 °FCool.7 mph77%29.84 "HgN/A
11:00 AM48 °FCool.13 mph68%29.84 "HgN/A
Weather by CustomWeather, © 2015

See weather overviewHow to use our weather pages